Location: G�migny
(47.9646°N, 1.6950°E)
Time: 06:00:43
(UTC+00:00)

STARLINK-72 - Pass Details

Date: 23 October 2019
Orbit: 548 x 551 km, 53.0° (Epoch: 21 November)

Event Time Altitude Azimuth Distance (km) Brightness Sun altitude
Rises 18:48:51 0° 293° (WNW) 2,721 8.5 -20.4°
Reaches altitude 10° 18:51:08 10° 298° (WNW) 1,826 7.2 -20.8°
Maximum altitude 18:55:13 54° 17° (NNE) 670 3.9 -21.5°
Enters shadow 18:55:26 54° 30° (NNE) 676 3.8 -21.5°
